OneWeb SL0088

operational
NORAD ID: 45457 Int'l Des: 2020-020 Owner: ONEWEB Country: UK Constellation: oneweb
LEOCIRCULARPOLARONEWEB_TYPE

Über OneWeb SL0088

Beschreibung wird geladen...

Live-Position

3D-Globus wird geladen...

Nächste Überflüge

Höhenverlauf

Altitude vs Time

uPlot chart will show altitude changes over time

Zweizeiliger Elementsatz

1 45457U 20020AK 26062.45872566 .00000490 00000-0 13457-2 0 9993
2 45457 87.8867 42.0416 0001722 75.2262 284.9056 13.11416786288688
Epoch: 3. März 2026 • Age: 27 hours

Aktueller Status

Höhe 1247.2 km
Geschwindigkeit 7.23 km/s
Subsatellitenpunkt -80.28°S, 27.65°E
Startdatum 21. März 2020
Alter 5.9 years
Typ internet

Technische Details

Klassifizierung Payload
Masse 148.00 kg
Trockenmasse 140.00 kg
Gesamtmasse 148.00 kg
Länge 1.30 m
Durchmesser 1.00 m
Spannweite 5.00 m
Form Trapezoid+2 pan
Hersteller ONEWUS
Bus-Typ ARROW
Phasenstatus In Orbit
Besitzer/Staat ONEWEB/UK

Große Konstellationen

Loading constellations...